Weather History for Boulmer, United Kingdom

Change the Weather History Date:

Sunday, March 17, 2013

  Actual Average Record
Temperature  
Mean Temperature 40 °F -  
Max Temperature 42 °F - - ()
Min Temperature 37 °F - - ()
Degree Days  
Heating Degree Days 26    
Moisture  
Dew Point 38 °F    
Average Humidity 89    
Maximum Humidity 100    
Minimum Humidity 72    
Precipitation  
Precipitation 0.16 in - - ()
Sea Level Pressure  
Sea Level Pressure 29.21 in    
Wind  
Wind Speed 13 mph ()    
Max Wind Speed 22 mph    
Max Gust Speed -    
Visibility 5.1 miles    
Events Rain    
T = Trace of Precipitation, MM = Missing Value Source: Averaged Metar Reports

Daily Weather History Graph

Daily Weather History Graph

Search for Another Location

Airport:

Trip Planner

Search our weather history database for the weather conditions in past years. The results will help you decide how hot, cold, wet, or windy it might be!

Date:

Astronomy

Mar. 17, 2013 Rise Set
Actual Time 6:16 AM GMT 6:14 PM GMT
Civil Twilight 5:39 AM GMT 6:50 PM GMT
Nautical Twilight 4:56 AM GMT 7:34 PM GMT
Astronomical Twilight 4:11 AM GMT 8:19 PM GMT
Moon 8:21 AM GMT (3/17) 12:03 AM GMT (3/17)
Length of Visible Light 13h 11m
Length of Day
11h 58m
Waxing Crescent, 30% of the Moon is Illuminated
Mar 17
Waxing Crescent
Mar 19
First Quarter
Mar 27
Full
Apr 3
Last Quarter
Apr 10
New

Hourly Weather History & Observations

Time (GMT) Temp. Windchill Dew Point Humidity Pressure Visibility Wind Dir Wind Speed Gust Speed Precip Events Conditions
12:50 AM 41.0 °F 34.3 °F 39.2 °F 93% 29.24 in 3.7 mi ESE 11.5 mph - N/A   Mostly Cloudy
1:50 AM 41.0 °F 32.8 °F 39.2 °F 93% 29.21 in - ESE 16.1 mph - N/A Rain Rain Showers
2:50 AM 40 °F - 39 °F 96% 29.22 in 4 mi ESE 16.1 mph - - Rain Light Drizzle
2:50 AM 41.0 °F 32.8 °F 39.2 °F 93% 29.21 in 4.3 mi ESE 16.1 mph - N/A   Light Drizzle
3:50 AM 39.2 °F 30.8 °F 39.2 °F 100% 29.18 in 5.6 mi ESE 15.0 mph - N/A Rain Light Rain Showers
4:50 AM 41.0 °F 33.1 °F 39.2 °F 93% 29.18 in 5.6 mi ESE 15.0 mph - N/A   Scattered Clouds
5:50 AM 40 °F - 39 °F 95% 29.18 in 5 mi East 13.8 mph - - Rain Light Drizzle
5:50 AM 41.0 °F 33.5 °F 39.2 °F 93% 29.15 in 5.0 mi East 13.8 mph - N/A   Light Drizzle
6:50 AM 39.2 °F 31.2 °F 37.4 °F 93% 29.15 in 5.0 mi East 13.8 mph - N/A Rain Light Rain Showers
7:50 AM 39.2 °F 32.5 °F 37.4 °F 93% 29.12 in 6.2 mi ESE 10.4 mph - N/A Rain Light Rain
8:50 AM 38 °F - 36 °F 91% 29.15 in 6 mi South 5.8 mph - - Rain Light Rain Showers
8:50 AM 37.4 °F 32.8 °F 35.6 °F 93% 29.12 in 5.6 mi South 5.8 mph - N/A Rain Light Rain Showers
9:50 AM 39.2 °F 33.6 °F 37.4 °F 93% 29.15 in 6.2 mi South 8.1 mph - N/A   Mostly Cloudy
10:50 AM 41.0 °F 32.8 °F 35.6 °F 81% 29.15 in 6.2 mi SSE 16.1 mph - N/A   Scattered Clouds
11:50 AM 41 °F - 35 °F 73% 29.19 in 28 mi South 15.0 mph - -   Scattered Clouds
11:50 AM 41.0 °F 33.1 °F 35.6 °F 81% 29.18 in 6.2 mi South 15.0 mph - N/A   Mostly Cloudy
12:50 PM 42.8 °F 34.0 °F 37.4 °F 81% 29.18 in 6.2 mi SE 20.7 mph - N/A   Mostly Cloudy
1:50 PM 41.0 °F 31.4 °F 35.6 °F 81% 29.21 in 6.2 mi SE 21.9 mph - N/A   Mostly Cloudy
2:50 PM 42 °F - 36 °F 72% 29.23 in 12 mi SE 21.9 mph - -   Scattered Clouds
2:50 PM 41.0 °F 31.4 °F 35.6 °F 81% 29.21 in 6.2 mi SE 21.9 mph - N/A   Partly Cloudy
3:50 PM 41.0 °F 32.2 °F 37.4 °F 87% 29.24 in 6.2 mi ESE 18.4 mph - N/A   Mostly Cloudy
4:50 PM 39.2 °F 31.6 °F 35.6 °F 87% 29.24 in 5.0 mi ESE 12.7 mph - N/A Rain Light Rain Showers
5:50 PM 38 °F - 36 °F 87% 29.26 in 3 mi SE 4.6 mph - - Rain Rain
5:50 PM 37.4 °F 33.8 °F 35.6 °F 93% 29.24 in - SE 4.6 mph - N/A Rain Rain
6:50 PM 37.4 °F - 35.6 °F 93% 29.24 in 3.1 mi NW 1.2 mph - N/A Rain Rain
7:50 PM 41.0 °F 31.9 °F 39.2 °F 93% 29.24 in 4.3 mi East 19.6 mph - N/A   Overcast
8:50 PM 41 °F - 40 °F 92% 29.26 in 4 mi East 17.3 mph - - Rain Rain Showers
8:50 PM 41.0 °F 32.5 °F 39.2 °F 93% 29.24 in 3.7 mi East 17.3 mph - N/A Rain Rain Showers
9:50 PM 41.0 °F 31.6 °F 39.2 °F 93% 29.24 in 3.7 mi East 20.7 mph - N/A   Mostly Cloudy
10:50 PM 41.0 °F 31.6 °F 39.2 °F 93% 29.27 in 2.8 mi East 20.7 mph - N/A   Haze
11:50 PM 41 °F - 38 °F 87% 29.28 in 4 mi East 18.4 mph - - Rain Rain
11:50 PM 41.0 °F 32.2 °F 39.2 °F 93% 29.27 in 3.7 mi East 18.4 mph - N/A   Haze